Regional Weather Roundup
Issued by NWS

Home | Current Version | Previous Version | Graphics & Text | Print | Product List | Glossary On
Versions: 1 2 3 4 5 6 7 8 9 10 11 12 13 14 15 16 17 18 19 20 21 22 23 24 25 26 27 28 29 30 31 32 33 34 35 36 37 38 39 40 41 42 43 44 45 46 47 48 49 50
000
ASUS43 KOAX 311002
RWRNE

WEATHER ROUNDUP FOR NEBRASKA
NATIONAL WEATHER SERVICE OMAHA NE
500 AM CDT TUE MAY 31 2016

NOTES: SATELLITE DATA IS BEING USED TO AUGMENT CLOUD COVER ABOVE
       12000 FEET.
       "FAIR" INDICATES FEW OR NO CLOUDS BELOW 12,000 FEET WITH NO
       SIGNIFICANT WEATHER AND/OR OBSTRUCTIONS TO VISIBILITY.

  * THESE STATIONS DO NOT REPORT WEATHER SUCH AS RAIN...SNOW OR FOG.

NEZ001>004-019>022-054>056-311100-
NEBRASKA PANHANDLE

CITY           SKY/WX    TMP DP  RH WIND       PRES   REMARKS
SCOTTSBLUFF    CLOUDY    50  42  74 NW6       30.08F
ALLIANCE       CLOUDY    50  45  83 NW7       30.05F
CHADRON        CLOUDY    48  43  82 SW7       30.06S
KIMBALL        CLOUDY    47  40  78 N9        30.11S
SIDNEY         CLEAR     48  46  93 NW9       30.09R
$$

NEZ057>060-069>072-079>082-311100-
SOUTHWEST NEBRASKA

CITY           SKY/WX    TMP DP  RH WIND       PRES   REMARKS
NORTH PLATTE   CLOUDY    51  47  86 NW7       30.04R
IMPERIAL       CLEAR     54  50  86 N10       30.02S
LEXINGTON      CLOUDY    56  53  89 N7        29.99R
MCCOOK         CLOUDY    55  51  86 N7        29.98S
OGALLALA       CLEAR     52  44  73 N12       30.04S
$$

NEZ005>010-023>029-035>040-094-311100-
NORTH CENTRAL NEBRASKA

CITY           SKY/WX    TMP DP  RH WIND       PRES   REMARKS
VALENTINE      CLEAR     47  44  90 SW8       30.00S
AINSWORTH      CLEAR     51  47  84 NW6       29.99S
BROKEN BOW     MOCLDY    56  51  84 N13       29.99R
ORD            CLOUDY    58  54  86 NW13      29.95R
$$

NEZ041-046>049-061>064-073>077-083>087-311100-
SOUTH CENTRAL NEBRASKA

CITY           SKY/WX    TMP DP  RH WIND       PRES   REMARKS
GRAND ISLAND   CLOUDY    61  59  93 CALM      29.94R
AURORA         CLOUDY    61  61  99 W5        29.93R
HASTINGS       CLOUDY    58  56  93 NE3       29.94R
HEBRON         MOCLDY    59  58  96 NW6       29.93R
HOLDREGE       CLOUDY    58  54  86 N9        29.96S
KEARNEY *      CLOUDY    59  54  82 NW8       29.96S
YORK           CLOUDY    61  57  88 CALM      29.92R
$$

NEZ011>018-030>034-042>045-311100-
NORTHEAST NEBRASKA

CITY           SKY/WX    TMP DP  RH WIND       PRES   REMARKS
NORFOLK        LGT RAIN  60  58  92 W5        29.92R
ALBION         CLOUDY    59  57  91 CALM      29.94R
BLAIR          CLOUDY    66  62  87 CALM      29.88R
FREMONT        LGT RAIN  63  56  78 NW13      29.90R
TEKAMAH        CLOUDY    63  59  87 NW9       29.88R
WAYNE          LGT RAIN  62  60  93 W7        29.91R
$$

NEZ050>053-065>068-078-088>093-311100-
SOUTHEAST NEBRASKA

CITY           SKY/WX    TMP DP  RH WIND       PRES   REMARKS
LINCOLN        LGT RAIN  65  57  75 NW6       29.88R
OMAHA EPPLEY   MOCLDY    67  62  84 SE7       29.86S
BEATRICE       CLOUDY    63  58  86 CALM      29.89R
FALLS CITY     LGT RAIN  64  61  90 S9        29.88F
NEBRASKA CITY  CLOUDY    64  64 100 S8        29.87F
PLATTSMOUTH    MOCLDY    66  64  94 SE6       29.87S
$$

NEZ044-045-051>053-067-311100-
OMAHA AREA

CITY           SKY/WX    TMP DP  RH WIND       PRES   REMARKS
OMAHA EPPLEY   MOCLDY    67  62  84 SE7       29.86S
BLAIR          CLOUDY    66  62  87 CALM      29.88R
FREMONT        LGT RAIN  63  56  78 NW13      29.90R
PLATTSMOUTH    MOCLDY    66  64  94 SE6       29.87S
WAHOO          CLOUDY    65  57  75 NW14      29.89R
$$



USA.gov is the U.S. government's official web portal to all federal, state and local government web resources and services.